Gillette, WY

10:42 PM MDT on May 26, 2018 (GMT -0600)
Gillette-Campbell County

Weather History for KGCC - August, 2014

Change the Weather History Date:

Monday, August 18, 2014

  Actual Average Record
Temperature  
Mean Temperature 68 °F 69 °F  
Max Temperature 85 °F 86 °F 99 °F (1959)
Min Temperature 50 °F 53 °F 39 °F (1950)
Degree Days  
Heating Degree Days 0 1  
Month to date heating degree days 0 15  
Since 1 June heating degree days 205 176  
Since 1 July heating degree days 13 34  
Cooling Degree Days 3 6  
Month to date cooling degree days 117 123  
Year to date cooling degree days 319 405  
Since 1 June cooling degree days 311 397  
Growing Degree Days 18 (Base 50)    
Moisture  
Dew Point 46 °F    
Average Humidity 48    
Maximum Humidity 71    
Minimum Humidity 25    
Precipitation  
Precipitation 0.00 in 0.02 in 0.60 in (1961)
Month to date precipitation 0.27 0.61  
Year to date precipitation 13.38 10.14  
Sea Level Pressure  
Sea Level Pressure 29.93 in    
Wind  
Wind Speed 6 mph (NW)    
Max Wind Speed 17 mph    
Max Gust Speed 23 mph    
Visibility 10 miles    
Events      
T = Trace of Precipitation, MM = Missing Value Source: NWS Daily Summary

Daily Weather History Graph

Daily Weather History Graph

Search for Another Location

Airport or City:

Astronomy

Aug. 18, 2014 Rise Set
Actual Time 6:08 AM MDT 8:02 PM MDT
Civil Twilight 5:37 AM MDT 8:33 PM MDT
Nautical Twilight 4:59 AM MDT 9:11 PM MDT
Astronomical Twilight 4:17 AM MDT 9:52 PM MDT
Moon 12:15 AM MDT (8/18) 3:11 PM MDT (8/18)
Length of Visible Light 14h 55m
Length of Day
13h 53m
Last Quarter, 38% of the Moon is Illuminated
Aug 18
Last Quarter
Aug 25
New
Sep 2
First Quarter
Sep 8
Full
Sep 15
Last Quarter

Hourly Weather History & Observations

Time (MDT) Temp. Dew Point Humidity Pressure Visibility Wind Dir Wind Speed Gust Speed Precip Events Conditions
12:53 AM 53.6 °F 44.6 °F 72% 30.10 in 10.0 mi SW 3.5 mph - N/A   Clear
1:53 AM 54.0 °F 44.1 °F 69% 29.96 in 10.0 mi SSW 3.5 mph - N/A   Clear
2:53 AM 53.1 °F 44.1 °F 71% 29.96 in 10.0 mi SSW 4.6 mph - N/A   Clear
3:53 AM 55.9 °F 44.1 °F 64% 29.97 in 10.0 mi SW 4.6 mph - N/A   Clear
4:53 AM 55.9 °F 44.1 °F 64% 29.97 in 10.0 mi West 6.9 mph - N/A   Clear
5:53 AM 57.0 °F 45.0 °F 64% 29.96 in 10.0 mi Calm Calm - N/A   Clear
6:53 AM 60.1 °F 46.0 °F 60% 29.97 in 10.0 mi Calm Calm - N/A   Clear
7:53 AM 66.0 °F 48.0 °F 52% 29.97 in 10.0 mi WNW 6.9 mph - N/A   Partly Cloudy
8:53 AM 70.0 °F 50.0 °F 49% 29.98 in 10.0 mi NW 8.1 mph - N/A   Clear
9:53 AM 73.0 °F 50.0 °F 44% 29.98 in 10.0 mi North 6.9 mph - N/A   Clear
10:53 AM 75.9 °F 50.0 °F 40% 29.97 in 10.0 mi NNW 8.1 mph 18.4 mph N/A   Clear
11:53 AM 79.0 °F 48.0 °F 34% 29.96 in 10.0 mi North 11.5 mph - N/A   Clear
12:53 PM 80.1 °F 46.9 °F 31% 29.93 in 10.0 mi Variable 6.9 mph 19.6 mph N/A   Clear
1:53 PM 82.0 °F 46.0 °F 28% 29.92 in 10.0 mi NNW 6.9 mph 19.6 mph N/A   Clear
2:53 PM 84.0 °F 46.0 °F 26% 29.90 in 10.0 mi NNW 9.2 mph 17.3 mph N/A   Clear
3:53 PM 82.0 °F 45.0 °F 27% 29.88 in 10.0 mi Calm Calm - N/A   Clear
4:53 PM 84.9 °F 46.0 °F 26% 29.86 in 10.0 mi North 10.4 mph - N/A   Clear
5:53 PM 84.0 °F 45.0 °F 25% 29.84 in 10.0 mi NNW 6.9 mph - N/A   Clear
6:53 PM 80.1 °F 45.0 °F 29% 29.83 in 10.0 mi NNE 8.1 mph - N/A   Clear
7:53 PM 70.0 °F 46.0 °F 42% 29.83 in 10.0 mi Calm Calm - N/A   Clear
8:53 PM 64.9 °F 45.0 °F 48% 29.86 in 10.0 mi Calm Calm - N/A   Partly Cloudy
9:53 PM 68.0 °F 44.6 °F 43% 29.97 in 10.0 mi East 4.6 mph - N/A   Clear
10:53 PM 62.1 °F 45.0 °F 53% 29.83 in 10.0 mi Calm Calm - N/A   Clear
11:53 PM 63.0 °F 45.0 °F 52% 29.82 in 10.0 mi South 6.9 mph - N/A   Clear